Weather History for Sedalia, MO

Change the Weather History Date:

Sunday, May 19, 2013

  Actual Average Record
Temperature  
Mean Temperature 74 °F 66 °F  
Max Temperature 87 °F 77 °F 90 °F (1944)
Min Temperature 61 °F 57 °F 37 °F (1993)
Degree Days  
Heating Degree Days 0 2  
Month to date heating degree days 125 67  
Since 1 July heating degree days 4724 4549  
Cooling Degree Days 9 4  
Month to date cooling degree days 58 45  
Year to date cooling degree days 84 79  
Growing Degree Days 24 (Base 50)    
Moisture  
Dew Point 66 °F    
Average Humidity 70    
Maximum Humidity 90    
Minimum Humidity 50    
Precipitation  
Precipitation 0.73 in 0.14 in 2.03 in (1943)
Month to date precipitation 2.18 2.97  
Year to date precipitation 15.90 13.43  
Sea Level Pressure  
Sea Level Pressure 29.75 in    
Wind  
Wind Speed 12 mph (South)    
Max Wind Speed 31 mph    
Max Gust Speed 48 mph    
Visibility 7 miles    
Events Rain , Thunderstorm    
T = Trace of Precipitation, MM = Missing Value Source: NWS Daily Summary

Daily Weather History Graph

Daily Weather History Graph

Search for Another Location

Airport:

Trip Planner

Search our weather history database for the weather conditions in past years. The results will help you decide how hot, cold, wet, or windy it might be!

Date:

Astronomy

May. 19, 2013 Rise Set
Actual Time 5:57 AM CDT 8:21 PM CDT
Civil Twilight 5:26 AM CDT 8:52 PM CDT
Nautical Twilight 4:49 AM CDT 9:29 PM CDT
Astronomical Twilight 4:08 AM CDT 10:11 PM CDT
Moon 2:30 PM CDT (5/19) 2:17 AM CDT (5/19)
Length of Visible Light 15h 25m
Length of Day
14h 24m
Waxing Gibbous, 65% of the Moon is Illuminated
May 19
Waxing Gibbous
May 24
Full
May 31
Last Quarter
Jun 8
New
Jun 16
First Quarter

Hourly Weather History & Observations

Time (CDT) Temp. Heat Index Dew Point Humidity Pressure Visibility Wind Dir Wind Speed Gust Speed Precip Events Conditions
12:53 AM 75.0 °F - 69.1 °F 82% 29.79 in 7.0 mi SSE 16.1 mph - N/A   Clear
1:53 AM 73.9 °F - 69.1 °F 85% 29.81 in 6.0 mi South 6.9 mph - N/A   Haze
2:53 AM 73.0 °F - 69.1 °F 87% 29.81 in 5.0 mi SSE 8.1 mph - N/A   Clear
3:53 AM 73.0 °F - 69.1 °F 87% 29.81 in 5.0 mi SSE 6.9 mph - N/A   Mostly Cloudy
4:26 AM 73.4 °F - 69.8 °F 88% 29.83 in 5.0 mi South 6.9 mph - N/A   Mostly Cloudy
5:15 AM 73.4 °F - 69.8 °F 88% 29.81 in 6.0 mi Calm Calm - N/A   Haze
5:53 AM 71.1 °F - 68.0 °F 90% 29.75 in 4.0 mi ESE 8.1 mph - N/A   Clear
6:10 AM 69.8 °F - 68.0 °F 94% 29.79 in 2.5 mi SSE 5.8 mph - N/A   Clear
7:30 AM 71.6 °F - 69.8 °F 94% 29.85 in 3.0 mi South 9.2 mph - N/A   Clear
7:53 AM 73.0 °F - 69.1 °F 87% 29.84 in 4.0 mi SSW 10.4 mph - N/A   Mostly Cloudy
8:53 AM 73.0 °F - 66.0 °F 79% 29.84 in 7.0 mi SW 3.5 mph - 0.00 in   Scattered Clouds
9:24 AM 71.6 °F - 66.2 °F 83% 29.79 in 6.0 mi East 9.2 mph - 0.00 in Rain , Thunderstorm Light Thunderstorms and Rain
9:46 AM 71.6 °F - 66.2 °F 83% 29.80 in 6.0 mi SE 6.9 mph - 0.02 in Rain Light Rain
9:53 AM 73.9 °F - 66.9 °F 79% 29.79 in 8.0 mi South 5.8 mph - 0.02 in   Scattered Clouds
10:53 AM 77.0 °F - 64.0 °F 64% 29.78 in 10.0 mi SSE 21.9 mph 28.8 mph N/A   Clear
11:53 AM 81.0 °F 81.7 °F 61.0 °F 50% 29.74 in 10.0 mi SSE 19.6 mph - N/A   Clear
12:53 PM 84.0 °F 87.8 °F 69.1 °F 61% 29.71 in 10.0 mi South 20.7 mph 25.3 mph N/A   Scattered Clouds
2:53 PM 86.0 °F 88.8 °F 66.9 °F 53% 29.67 in 10.0 mi South 18.4 mph 27.6 mph N/A   Mostly Cloudy
3:53 PM 86.0 °F 88.8 °F 66.9 °F 53% 29.65 in 10.0 mi South 19.6 mph 28.8 mph N/A   Mostly Cloudy
4:53 PM 87.1 °F 89.9 °F 66.9 °F 51% 29.61 in 10.0 mi South 18.4 mph 26.5 mph N/A   Partly Cloudy
5:53 PM 84.9 °F 87.6 °F 66.9 °F 55% 29.63 in 10.0 mi South 16.1 mph 23.0 mph N/A   Mostly Cloudy
6:53 PM 84.0 °F 86.3 °F 66.0 °F 55% 29.57 in 10.0 mi SSE 15.0 mph - N/A   Clear
7:53 PM 82.0 °F 83.4 °F 64.0 °F 54% 29.62 in 10.0 mi South 11.5 mph 20.7 mph N/A   Clear
8:09 PM 80.6 °F 81.8 °F 62.6 °F 54% 29.72 in 10.0 mi WSW 20.7 mph 31.1 mph N/A Thunderstorm Mostly Cloudy
8:15 PM 73.4 °F - 62.6 °F 69% 29.70 in 1.8 mi West 24.2 mph 48.3 mph 0.11 in Rain , Thunderstorm Heavy Thunderstorms and Rain
8:23 PM 69.8 °F - 60.8 °F 73% 29.70 in 1.5 mi SSW 10.4 mph 48.3 mph 0.13 in Rain , Thunderstorm Light Thunderstorms and Rain
8:53 PM 71.1 °F - 64.9 °F 81% 29.68 in 10.0 mi South 10.4 mph 20.7 mph 0.18 in Thunderstorm Thunderstorm
9:53 PM 70.0 °F - 63.0 °F 78% 29.73 in 10.0 mi NW 5.8 mph - N/A   Mostly Cloudy
11:29 PM 66.2 °F - 60.8 °F 83% 29.84 in 6.0 mi West 25.3 mph 41.4 mph 0.01 in Rain , Thunderstorm Light Rain
11:41 PM 62.6 °F - 57.2 °F 82% 29.80 in 3.0 mi West 17.3 mph 28.8 mph 0.06 in Rain , Thunderstorm Rain
11:53 PM 61.0 °F - 57.9 °F 90% 29.77 in 2.0 mi WSW 9.2 mph 17.3 mph 0.21 in Rain , Thunderstorm Heavy Thunderstorms and Rain